Weather History for Anoka County, MN

Change the Weather History Date:

Friday, December 27, 2013

  Actual Average Record
Temperature  
Mean Temperature 24 °F -  
Max Temperature 41 °F 22 °F 91 °F (2006)
Min Temperature 8 °F 8 °F -4 °F (1996)
Degree Days  
Heating Degree Days 40    
Moisture  
Dew Point 22 °F    
Average Humidity 91    
Maximum Humidity 100    
Minimum Humidity 61    
Precipitation  
Precipitation 0.00 in - - ()
Sea Level Pressure  
Sea Level Pressure 30.02 in    
Wind  
Wind Speed 3 mph (SSW)    
Max Wind Speed 14 mph    
Max Gust Speed 18 mph    
Visibility 8 miles    
Events Fog    
Averages and records for this station are not official NWS values.
T = Trace of Precipitation, MM = Missing Value Source: NWS Daily Summary

Daily Weather History Graph

Daily Weather History Graph

Search for Another Location

Airport:

Trip Planner

Search our weather history database for the weather conditions in past years. The results will help you decide how hot, cold, wet, or windy it might be!

Date:

Astronomy

Dec. 27, 2013 Rise Set
Actual Time 7:50 AM CST 4:37 PM CST
Civil Twilight 7:17 AM CST 5:11 PM CST
Nautical Twilight 6:39 AM CST 5:48 PM CST
Astronomical Twilight 6:03 AM CST 6:24 PM CST
Moon 2:13 AM CST (12/27) 12:56 PM CST (12/27)
Length of Visible Light 9h 54m
Length of Day
8h 46m
Waning Crescent, 28% of the Moon is Illuminated
Dec 27
Waning Crescent
Jan 1
New
Jan 7
First Quarter
Jan 15
Full
Jan 23
Last Quarter

Hourly Weather History & Observations

Time (CST) Temp. Windchill Dew Point Humidity Pressure Visibility Wind Dir Wind Speed Gust Speed Precip Events Conditions
12:13 AM 10.4 °F - 8.6 °F 92% 30.14 in 0.2 mi Calm Calm - N/A Fog Light Freezing Fog
12:34 AM 10.4 °F - 8.6 °F 92% 30.13 in 0.2 mi Calm Calm - N/A Fog Light Freezing Fog
12:54 AM 10.4 °F - 8.6 °F 92% 30.13 in 2.5 mi Calm Calm - N/A   Scattered Clouds
1:13 AM 8.6 °F - 6.8 °F 92% 30.13 in 2.5 mi Calm Calm - N/A   Clear
1:34 AM 8.6 °F - 6.8 °F 92% 30.13 in 4.0 mi Calm Calm - N/A   Clear
1:53 AM 10.4 °F - 8.6 °F 92% 30.12 in 4.0 mi Calm Calm - N/A   Clear
2:14 AM 10.4 °F - 8.6 °F 92% 30.11 in 7.0 mi Calm Calm - N/A   Clear
2:33 AM 8.6 °F - 6.8 °F 92% 30.11 in 7.0 mi Calm Calm - N/A   Clear
2:54 AM 10.4 °F - 8.6 °F 92% 30.11 in 7.0 mi Calm Calm - N/A   Clear
3:14 AM 12.2 °F - 10.4 °F 92% 30.11 in 7.0 mi Calm Calm - N/A   Clear
3:34 AM 10.4 °F 4.0 °F 8.6 °F 92% 30.11 in 10.0 mi South 3.5 mph - N/A   Clear
3:54 AM 12.2 °F 6.1 °F 10.4 °F 92% 30.11 in 7.0 mi South 3.5 mph - N/A   Mostly Cloudy
4:13 AM 17.6 °F 12.3 °F 17.6 °F 100% 30.11 in 7.0 mi South 3.5 mph - N/A   Overcast
4:34 AM 21.2 °F 16.4 °F 19.4 °F 93% 30.10 in 7.0 mi South 3.5 mph - N/A   Overcast
4:54 AM 21.2 °F 16.4 °F 21.2 °F 100% 30.09 in 7.0 mi South 3.5 mph - N/A   Overcast
5:13 AM 23.0 °F 18.4 °F 23.0 °F 100% 30.08 in 7.0 mi SSE 3.5 mph - N/A   Overcast
5:34 AM 24.8 °F 17.9 °F 23.0 °F 93% 30.07 in 7.0 mi South 5.8 mph - N/A   Overcast
5:54 AM 24.8 °F 19.1 °F 24.8 °F 100% 30.07 in 7.0 mi SSE 4.6 mph - N/A   Overcast
6:13 AM 24.8 °F 20.5 °F 24.8 °F 100% 30.07 in 7.0 mi SSE 3.5 mph - N/A   Overcast
6:34 AM 24.8 °F 20.5 °F 24.8 °F 100% 30.07 in 7.0 mi SE 3.5 mph - N/A   Overcast
6:54 AM 24.8 °F 19.1 °F 24.8 °F 100% 30.06 in 10.0 mi SE 4.6 mph - N/A   Scattered Clouds
7:50 AM 21.2 °F 12.6 °F 21.2 °F 100% 30.04 in 4.0 mi SE 6.9 mph - N/A   Scattered Clouds
8:45 AM 23.0 °F - 21.2 °F 93% 30.02 in 5.0 mi North - - N/A   Scattered Clouds
9:45 AM 28.4 °F 17.5 °F 28.4 °F 100% 29.99 in 7.0 mi South 13.8 mph - N/A   Mostly Cloudy
10:45 AM 30.2 °F 21.3 °F 28.4 °F 93% 29.95 in 10.0 mi SSE 10.4 mph - N/A   Mostly Cloudy
12:45 PM 37.4 °F 29.8 °F 28.4 °F 70% 29.88 in 10.0 mi SSW 11.5 mph 18.4 mph N/A   Mostly Cloudy
1:45 PM 41.0 °F 34.3 °F 28.4 °F 61% 29.87 in 10.0 mi WSW 11.5 mph - N/A   Scattered Clouds
2:45 PM 39.2 °F 32.5 °F 30.2 °F 70% 29.86 in 10.0 mi WSW 10.4 mph - N/A   Clear
3:45 PM 39.2 °F 32.5 °F 30.2 °F 70% 29.88 in 10.0 mi WSW 10.4 mph - N/A   Clear
4:45 PM 39.2 °F 33.0 °F 32.0 °F 75% 29.91 in 10.0 mi WSW 9.2 mph - N/A   Clear
5:45 PM 37.4 °F 31.4 °F 32.0 °F 81% 29.91 in 10.0 mi SW 8.1 mph - N/A   Clear
6:45 PM 37.4 °F 32.1 °F 32.0 °F 81% 29.94 in 10.0 mi SW 6.9 mph - N/A   Clear
7:45 PM 35.6 °F 29.9 °F 32.0 °F 87% 29.96 in 10.0 mi WSW 6.9 mph - N/A   Clear
8:45 PM 35.6 °F 30.7 °F 32.0 °F 87% 29.97 in 10.0 mi SW 5.8 mph - N/A   Clear
9:14 PM 33.8 °F 28.6 °F 32.0 °F 93% 29.96 in 10.0 mi SSW 5.8 mph - N/A   Clear
9:34 PM 33.8 °F 28.6 °F 32.0 °F 93% 29.97 in 10.0 mi SW 5.8 mph - N/A   Clear
9:54 PM 33.8 °F 28.6 °F 32.0 °F 93% 29.98 in 10.0 mi WSW 5.8 mph - N/A   Clear
10:14 PM 33.8 °F 29.6 °F 32.0 °F 93% 29.97 in 10.0 mi WSW 4.6 mph - N/A   Clear
10:34 PM 33.8 °F 30.8 °F 30.2 °F 87% 29.96 in 10.0 mi SW 3.5 mph - N/A   Clear
10:54 PM 33.8 °F 30.8 °F 32.0 °F 93% 29.97 in 10.0 mi WSW 3.5 mph - N/A   Clear
11:14 PM 32.0 °F 28.7 °F 30.2 °F 93% 29.96 in 10.0 mi SSW 3.5 mph - N/A   Clear
11:34 PM 30.2 °F 26.7 °F 30.2 °F 100% 29.97 in 10.0 mi SW 3.5 mph - N/A   Clear
11:54 PM 30.2 °F 26.7 °F 30.2 °F 100% 29.96 in 10.0 mi WSW 3.5 mph - N/A   Clear